Lid_Strength_Index
15 15 15 15 14 14 14 14 14 14 14 14 14 13 12 13 13 13 13 13 14 14 13 14 14 14 14 15 14 14 15 14 14 14 13 14 14 14 15 15 14 15 16
15 15 15 14 14 14 14 14 14 15 14 14 13 13 13 13 13 13 13 13 14 14 14 14 14 13 15 15 15 15 15 14 13 14 14 14 15 15 15 16 16 16 16
15 14 14 14 14 14 14 14 15 15 14 13 13 14 13 13 14 13 13 14 14 14 15 15 15 14 15 15 15 15 14 13 13 13 14 13 14 16 16 16 17 16 15
14 14 14 15 14 14 14 14 14 14 14 14 14 14 13 13 13 13 14 14 14 14 14 14 14 14 14 14 14 14 14 14 13 13 14 15 16 16 17 19 18 18 18
14 14 14 14 14 14 14 14 14 14 14 14 14 14 14 13 13 14 14 15 15 15 15 13 13 12 11 12 13 13 13 13 13 14 16 16 17 19 19 19 20 20 19
13 13 14 14 15 15 14 14 14 14 15 14 14 14 14 13 11 11 13 14 15 14 14 14 14 13 11 10 10 10 12 14 16 16 17 18 19 19 19 21 21 23 24
13 14 14 14 15 14 14 14 14 15 15 15 15 15 15 14 11 10 11 14 14 14 14 14 13 13 13 13 13 14 14 13 14 16 18 19 20 20 20 22 22 23 22
14 14 14 14 14 14 14 15 15 15 15 15 15 15 15 14 10 10 10 13 14 14 14 13 14 14 14 15 16 17 17 17 18 17 18 19 19 19 20 21 22 24 24
13 13 13 13 14 14 15 15 15 15 15 15 14 15 15 14 10 9 11 14 14 14 13 14 14 15 13 14 16 18 19 18 16 15 16 16 17 17 18 22 29 30 30
12 12 13 14 14 14 14 15 16 16 15 15 15 15 15 14 10 9 12 14 14 15 14 14 13 14 13 14 16 19 23 21 22 23 21 20 20 20 20 22 23 31 29
14 14 14 14 14 15 16 17 17 17 16 17 16 16 16 14 12 9 10 14 15 16 16 16 15 13 14 14 16 19 21 21 20 24 24 23 23 23 23 23 22 24 28
15 15 16 16 15 16 16 18 18 17 18 18 18 19 17 15 13 10 10 12 13 17 17 16 16 13 14 14 18 16 16 21 25 27 28 28 26 25 24 23 23 23 23
18 19 20 18 16 16 17 18 19 18 17 18 17 17 17 15 15 11 10 10 12 16 16 16 14 12 13 15 16 17 22 25 28 31 30 27 26 25 24 25 24 25 25
19 19 19 18 19 19 17 16 16 17 17 17 16 16 16 17 16 15 13 11 11 13 14 15 14 16 16 18 20 21 25 28 29 30 30 27 25 27 29 27 30 29 34
19 19 19 19 18 18 17 16 16 16 14 15 15 15 17 17 16 14 13 13 13 15 19 22 24 25 26 28 30 30 30 30 30 31 31 31 29 30 30 31 31 36 35
20 20 20 20 21 20 19 19 13 12 11 10 11 14 15 13 12 12 11 11 12 13 23 24 27 27 25 26 28 31 32 31 31 32 33 33 32 32 33 33 33 37 37
19 20 20 20 20 20 20 18 17 16 10 10 10 10 11 14 11 11 11 11 11 13 26 27 22 25 25 27 28 30 30 29 33 31 31 33 34 36 35 36 35 35 37
23 21 20 20 19 20 18 17 18 18 15 13 11 11 10 10 11 11 10 11 14 14 29 27 25 26 28 27 29 29 30 34 32 32 33 36 37 37 37 37 37 40 40
23 23 23 22 20 18 18 20 17 15 14 14 13 12 10 10 10 10 10 13 16 16 28 28 27 28 28 28 28 29 30 30 33 36 36 35 36 38 38 37 37 35 37
26 23 22 21 22 21 20 19 17 15 15 15 14 14 13 12 12 13 12 13 16 17 25 24 27 27 27 27 29 30 31 34 33 34 34 34 34 36 34 36 38 38 40
25 25 22 24 22 20 19 17 16 15 15 15 15 16 12 13 13 14 14 13 17 19 23 23 25 26 27 28 29 30 30 29 31 32 33 34 36 38 35 34 37 40 40
26 26 26 23 22 20 17 15 14 14 15 15 19 19 11 12 13 14 14 15 18 19 20 21 23 24 25 26 27 28 29 29 31 32 32 33 35 35 38 39 39 39 41
27 26 26 24 23 21 20 15 15 16 16 18 22 19 16 13 15 16 16 18 19 20 21 21 22 24 25 24 25 25 26 27 27 29 30 32 33 33 36 37 39 41 41
27 25 24 24 24 21 19 18 18 18 18 20 20 20 17 16 16 18 18 23 22 22 21 21 22 23 24 25 26 26 25 28 29 29 30 30 31 32 35 40 38 38 38
26 24 22 22 21 20 20 20 20 19 19 20 20 20 20 18 17 19 21 22 21 22 23 23 22 23 25 26 26 28 28 24 30 30 31 31 31 31 34 37 37 39 39
27 25 23 23 22 21 21 20 20 20 20 19 20 20 20 20 19 20 23 22 22 22 22 23 23 24 25 25 26 26 27 25 28 29 30 30 31 32 34 37 36 39 39